Regional Weather Roundup
Issued by NWS

Home | Current Version | Previous Version | Text Only | Print | Product List | Glossary On
Versions: 1 2 3 4 5 6 7 8 9 10 11 12 13 14 15 16 17 18 19 20 21 22 23 24 25 26 27 28 29 30 31 32 33 34 35 36 37 38 39 40 41 42 43 44 45 46 47 48 49
000
ASUS42 KTBW 291610
RWRFL
FLORIDA REGIONAL WEATHER ROUNDUP
NATIONAL WEATHER SERVICE TAMPA BAY RUSKIN FL
1100 AM EST THU JAN 29 2015

NOTE: "FAIR" INDICATES FEW OR NO CLOUDS BELOW 12,000 FEET WITH NO
SIGNIFICANT WEATHER AND/OR OBSTRUCTIONS TO VISIBILITY.


FLZ001>010-012>015-112-114-115-291700-
PANHANDLE FLORIDA

CITY           SKY/WX    TMP DP  RH WIND       PRES   REMARKS
PENSACOLA      SUNNY     64  51  62 S12       30.30R
PENSACOLA NAS  MOSUNNY   65  53  65 S12       30.30R
MILTON NAS     MOSUNNY   61  49  64 S9        30.31R
CRESTVIEW      SUNNY     60  46  59 SE7       30.34R
DUKE FIELD     MOSUNNY   59  47  64 S13       30.31R
VALPARAISO     SUNNY     60  50  69 SE12      30.31S
MARY ESTHER    SUNNY     62  48  61 SE12      30.30R
TRI COUNTY     FAIR      56  42  59 S9        30.33F
PANAMA CITY    FAIR      57  44  62 E10       30.32F
TYNDALL AFB    SUNNY     60  47  63 SE15G22   30.33F
APALACHICOLA   SUNNY     60  45  57 SE12      30.34F

STATION/POSITION SKY/WX   TEMP    WIND        PRES    WAVE   SWELL
                          AIR SEA DIR/SP/G            HT/PER HT/PER
                          (F)     (DEG/KT/KT) (MB)    (FT/S) (FT/S)
30.1N   87.6W              63 62  160/ 14/ 16 1024.9R   2/ 4
29.2N   88.2W              65 69  160/ 14/ 16 1025.9R   2/ 5
28.7N   86.0W              63 70  140/ 12/ 16 1027.2R   2/ 4
PANAMA CITY BEAC           54 58  120/ 15/ 17 1026.5F
CAPE SAN BLAS    NOT AVBL
TOWER C                    56     140/ 12/ 13 1027.6F
28.5N   84.5W              60 67  100/ 10/ 14 1027.5R   3/ 5   3/ 5

$$
FLZ011-016>038-118-127-128-134-139-239-291700-
NORTH FLORIDA

CITY           SKY/WX    TMP DP  RH WIND       PRES   REMARKS
MARIANNA       SUNNY     55  40  56 S7        30.34S
TALLAHASSEE    SUNNY     56  30  37 SE10      30.35F
PERRY          SUNNY     55  37  50 SE5       30.38S
CROSS CITY       N/A     58  39  49 NE6       30.37S
LAKE CITY      FAIR      55  41  58 CALM      30.37S
GAINESVILLE    SUNNY     58  43  57 CALM      30.36S
MAYPORT NAS    MOSUNNY   58  46  64 NE8       30.36S
JACKSONVILLE   MOSUNNY   56  43  61 CALM      30.36S
JAX NAS        MOSUNNY   57  42  57 N8        30.37S
JAX CRAIG      SUNNY     58  45  62 N6        30.36S
JAX CECIL      SUNNY     55  41  58 N6        30.37S
FERNANDINA BEA FAIR      63  45  51 NE7       30.35R
ST AUGUSTINE   SUNNY     59  48  67 N8        30.36S

STATION/POSITION SKY/WX   TEMP    WIND        PRES    WAVE   SWELL
                          AIR SEA DIR/SP/G            HT/PER HT/PER
                          (F)     (DEG/KT/KT) (MB)    (FT/S) (FT/S)
SHELL POINT                50      80/  3/  6   N/A
KEATON BEACH               54     130/  3/  4 1028.4F
CEDAR KEY                  50      60/  7/  9 1028.3S
FERNANDINA                 50 55  340/  5/  6 1027.3R
MAYPORT                    54 56   20/  7/  8 1027.9R
31.4N   80.9W              54 54   50/  6/  6 1028.1F   3/ 9   3/ 9
ST AUGUSTINE               55     350/ 13/ 13 1028.2R

$$
FLZ040-043>046-052-053-057-058-063-144-291700-
INTERIOR CENTRAL FLORIDA

CITY           SKY/WX    TMP DP  RH WIND       PRES   REMARKS
OCALA          SUNNY     59  45  58 E6        30.35S
THE VILLAGES     N/A     59  46  63 NW5       30.25R
LEESBURG       SUNNY     61  46  57 N6        30.34F
SANFORD        SUNNY     63  48  58 VRB3      30.32F
ORLANDO EXEC   SUNNY     63  48  58 CALM      30.32F
ORLANDO INTL   MOSUNNY   64  48  56 NE5       30.32F
KISSIMMEE      SUNNY     64  48  55 CALM      30.33F
WINTER HAVEN   SUNNY     64  47  53 VRB5      30.34F
LAKELAND       SUNNY     63  46  55 E5        30.33F
BARTOW         MOSUNNY   61  45  55 NE5       30.33F
OKEECHOBEE     SUNNY     64  50  59 NE3       30.31F

$$
FLZ041-047-054-059-064-141-147-291700-
EAST CENTRAL FLORIDA

CITY           SKY/WX    TMP DP  RH WIND       PRES   REMARKS
ORMOND BEACH   SUNNY     63  48  59 CALM      30.33S
DAYTONA BEACH  MOSUNNY   64  48  56 CALM      30.33S
DELAND         SUNNY    N/A N/A N/A CALM      30.34R
JFK SPACE CTR  MOSUNNY   67  49  52 NE7       30.30F
TITUSVILLE     MOSUNNY   64  48  55 E7        30.32F
CAPE CANAVERAL SUNNY     67  47  48 E9        30.30F
PATRICK AFB    SUNNY     65  53  65 NE9       30.31F
MELBOURNE      SUNNY     66  49  54 NE8       30.31S
VERO BEACH     SUNNY     68  48  48 E9        30.30F
FT PIERCE      MOSUNNY   69  47  45 NE10      30.29F

STATION/POSITION SKY/WX   TEMP    WIND        PRES    WAVE   SWELL
                          AIR SEA DIR/SP/G            HT/PER HT/PER
                          (F)     (DEG/KT/KT) (MB)    (FT/S) (FT/S)
28.5N   80.2W              64 69   80/  8/ 10 1026.8R
28.9N   78.5W              64 75   50/ 10/ 14 1026.8S   6/11   5/11
TRIDENT PIER               60 62  300/  4/  5 1026.2R
28.4N   80.5W                 62                N/A     3/13   2/13
27.6N   80.2W                 67                N/A     5/13   2/13

$$
FLZ050-056-061-142-242-148-248-149-249-151-251-155-255-
160-260-291700-
WEST CENTRAL FLORIDA

CITY           SKY/WX    TMP DP  RH WIND       PRES   REMARKS
CRYSTAL RIVER  FAIR      59  43  55 E5        30.35S
INVERNESS      FAIR      59  45  58 N3        30.35S
BROOKSVILLE    SUNNY     61  46  57 CALM      30.34F
ZEPHYRHILLS    FAIR      61  46  59 E3        30.34F
CLEARWATER     SUNNY     59  46  62 E6        30.33F
TAMPA INTL     MOSUNNY   63  44  50 E5        30.33F
TAMPA EXEC     SUNNY     63  46  55 E5        30.34S
PLANT CITY       N/A    N/A N/A N/A MISG        N/A
MACDILL AFB    SUNNY     61  49  64 E10       30.32F
PETER O KNIGHT SUNNY     63  48  59 E8        30.33F
ST PETERSBURG  SUNNY     59  47  64 E9        30.32S
SARASOTA       SUNNY     64  47  53 E9        30.30S
VENICE         FAIR      64  48  55 E16       30.31S

STATION/POSITION SKY/WX   TEMP    WIND        PRES    WAVE   SWELL
                          AIR SEA DIR/SP/G            HT/PER HT/PER
                          (F)     (DEG/KT/KT) (MB)    (FT/S) (FT/S)
CEDAR KEY                  50      60/  7/  9 1028.3S
28.5N   84.5W              60 67  100/ 10/ 14 1027.5R   3/ 5   3/ 5
27.3N   84.3W                 72                N/A     4/ 6
CLEARWATER BEACH           56 59   70/  6/  8 1026.7R
MIDDLE TAMPA BAY           54      60/  9/ 11 1027.1R
VENICE                     63 62   80/ 15/ 18 1025.8R

$$
FLZ066-069-070-075>078-162-262-165-265-291700-
SOUTHWEST FLORIDA AND KEYS

CITY           SKY/WX    TMP DP  RH WIND       PRES   REMARKS
PUNTA GORDA    SUNNY     66  48  52 E10       30.32F
FT MYERS       SUNNY     67  48  50 E9        30.29F
SOUTHWEST INTL SUNNY     67  47  48 E15       30.29F
NAPLES         SUNNY     68  48  48 E13       30.28S
MARCO ISLAND   SUNNY     66  48  52 NE10      30.29S
IMMOKALEE      SUNNY     70  48  46 NE12      30.31F
MARATHON       SUNNY     67  56  67 NE12      30.25R
KEY WEST NAS   MOSUNNY   68  56  65 NE14      30.25S
KEY WEST INTL  SUNNY     67  58  72 NE13G21   30.26R

STATION/POSITION SKY/WX   TEMP    WIND        PRES    WAVE   SWELL
                          AIR SEA DIR/SP/G            HT/PER HT/PER
                          (F)     (DEG/KT/KT) (MB)    (FT/S) (FT/S)
VENICE                     63 62   80/ 15/ 18 1025.8R
NAPLES                     61 72   50/ 10/ 13 1026.0R
26.0N   85.6W              65 72  100/ 12/ 14 1025.4R   3/ 5
DRY TORTUGAS               65      60/ 20/ 22 1024.3R
NW FL BAY                  61      50/ 13/ 16 1024.1R
SAND KEY                   65      40/ 17/ 20 1024.4R
SOMBRERO KEY               64      40/ 17/ 17 1024.4R
LONG KEY                   61 63   20/ 14/ 16 1024.7R
MOLASSES REEF              68 74   80/ 18/ 21 1023.7F

$$
FLZ067-068-071>074-168-172>174-291700-
SOUTHEAST FLORIDA

CITY           SKY/WX    TMP DP  RH WIND       PRES   REMARKS
W PALM BEACH   PTSUNNY   71  49  45 E13       30.28R
FT LAUDER-EXEC PTSUNNY   70  48  45 E18       30.28R
FT LAUDERDALE  PTSUNNY   68  49  50 E14G20    30.27R
POMPANO BEACH  PTSUNNY   71  50  47 E14       30.28R
PEMBROKE PINES PTSUNNY   69  48  47 E15       30.29R
OPA LOCKA      MOSUNNY   70  48  45 E12       30.28R
MIAMI          PTSUNNY   70  48  45 NE14G22   30.27R
WEST KENDALL   CLOUDY    70  51  51 E15       30.27R
HOMESTEAD      MOSUNNY   70  49  47 NE13      30.26S

STATION/POSITION SKY/WX   TEMP    WIND        PRES    WAVE   SWELL
                          AIR SEA DIR/SP/G            HT/PER HT/PER
                          (F)     (DEG/KT/KT) (MB)    (FT/S) (FT/S)
PORT EVERGLADES            67      50/ 12/ 16 1024.9
VIRGINIA KEY               66 66   70/ 16/ 19 1024.7R
LAKE WORTH                 67 73   70/ 10/ 17 1024.8R
SETTLEMENT POINT           65     100/  3/  4 1026.1R

$$



USA.gov is the U.S. government's official web portal to all federal, state and local government web resources and services.